The Dalles, WA

2:26 PM PST on December 12, 2019 (GMT -0800)
Columbia Gorge Regional-The Dalles

Weather History for KDLS - November, 2019

Change the Weather History Date:

Monday, November 18, 2019

  Actual Average Record
Temperature  
Mean Temperature 48 °F -  
Max Temperature 53 °F 51 °F 66 °F (2003)
Min Temperature 44 °F 36 °F 18 °F (1955)
Degree Days  
Heating Degree Days 16    
Moisture  
Dew Point 45 °F    
Average Humidity 87    
Maximum Humidity 97    
Minimum Humidity 74    
Precipitation  
Precipitation 0.05 in - - ()
Sea Level Pressure  
Sea Level Pressure 29.89 in    
Wind  
Wind Speed 4 mph (ESE)    
Max Wind Speed 8 mph    
Max Gust Speed -    
Visibility 9 miles    
Events Rain    
Averages and records for this station are not official NWS values.
T = Trace of Precipitation, MM = Missing Value Source: NWS Daily Summary

Daily Weather History Graph

Daily Weather History Graph

Search for Another Location

Airport or City:

Astronomy

Nov. 18, 2019 Rise Set
Actual Time 7:08 AM PST 4:31 PM PST
Civil Twilight 6:35 AM PST 5:03 PM PST
Nautical Twilight 5:59 AM PST 5:39 PM PST
Astronomical Twilight 5:24 AM PST 6:14 PM PST
Moon 10:22 PM PST (11/18) 12:44 PM PST (11/18)
Length of Visible Light 10h 28m
Length of Day
9h 23m
Waning Gibbous, 62% of the Moon is Illuminated
Nov 18
Waning Gibbous
Nov 19
Last Quarter
Nov 26
New
Dec 3
First Quarter
Dec 11
Full

Hourly Weather History & Observations

Time (PST) Temp. Windchill Dew Point Humidity Pressure Visibility Wind Dir Wind Speed Gust Speed Precip Events Conditions
12:53 AM 48.9 °F - 44.1 °F 83% 30.14 in 10.0 mi ENE 5.8 mph - N/A   Clear
1:53 AM 46.9 °F - 43.0 °F 86% 30.14 in 10.0 mi ESE 8.1 mph - N/A   Clear
2:53 AM 45.0 °F 41.8 °F 42.1 °F 90% 30.12 in 10.0 mi East 5.8 mph - N/A   Clear
3:34 AM 45.0 °F 42.6 °F 42.1 °F 90% 30.10 in 10.0 mi ESE 4.6 mph - N/A   Mostly Cloudy
3:53 AM 45.0 °F 43.5 °F 42.1 °F 90% 30.10 in 10.0 mi East 3.5 mph - N/A   Overcast
4:15 AM 45.0 °F 41.8 °F 42.1 °F 90% 30.09 in 10.0 mi East 5.8 mph - N/A   Mostly Cloudy
4:53 AM 45.0 °F 43.5 °F 42.1 °F 90% 30.08 in 10.0 mi SSW 3.5 mph - N/A   Mostly Cloudy
5:26 AM 44.1 °F - 42.1 °F 93% 30.06 in 10.0 mi Calm Calm - N/A   Overcast
5:53 AM 46.0 °F - 43.0 °F 89% 30.06 in 10.0 mi Calm Calm - N/A   Overcast
6:23 AM 45.0 °F - 42.1 °F 90% 30.05 in 10.0 mi Calm Calm - N/A   Overcast
6:44 AM 45.0 °F 43.5 °F 42.1 °F 90% 30.04 in 10.0 mi South 3.5 mph - N/A   Overcast
6:53 AM 45.0 °F 43.5 °F 42.1 °F 90% 30.04 in 10.0 mi SSE 3.5 mph - N/A   Overcast
7:53 AM 46.0 °F - 44.1 °F 93% 30.03 in 10.0 mi Calm Calm - N/A   Overcast
8:53 AM 48.0 °F - 45.0 °F 89% 30.01 in 10.0 mi Calm Calm - N/A   Overcast
9:53 AM 48.9 °F - 45.0 °F 86% 29.99 in 10.0 mi Calm Calm - N/A   Overcast
10:53 AM 50.0 °F - 45.0 °F 83% 29.96 in 10.0 mi Calm Calm - N/A   Overcast
11:42 AM 51.1 °F - 46.0 °F 83% 29.92 in 10.0 mi WNW 3.5 mph - N/A   Overcast
11:50 AM 51.8 °F - 46.4 °F 82% 29.92 in 10.0 mi Calm Calm - N/A   Overcast
11:53 AM 51.1 °F - 46.0 °F 83% 29.93 in 10.0 mi West 3.5 mph - N/A   Overcast
12:53 PM 52.0 °F - 45.0 °F 77% 29.90 in 10.0 mi South 6.9 mph - N/A   Mostly Cloudy
1:01 PM 51.1 °F - 45.0 °F 80% 29.90 in 10.0 mi South 6.9 mph - N/A   Scattered Clouds
1:53 PM 51.1 °F - 45.0 °F 80% 29.86 in 10.0 mi NNE 4.6 mph - N/A   Mostly Cloudy
2:05 PM 51.1 °F - 45.0 °F 80% 29.84 in 10.0 mi NE 3.5 mph - N/A   Mostly Cloudy
2:32 PM 52.0 °F - 45.0 °F 77% 29.80 in 10.0 mi East 8.1 mph - N/A   Mostly Cloudy
2:53 PM 52.0 °F - 45.0 °F 77% 29.81 in 10.0 mi East 3.5 mph - N/A   Mostly Cloudy
3:25 PM 53.1 °F - 45.0 °F 74% 29.78 in 10.0 mi NE 5.8 mph - N/A   Overcast
3:32 PM 53.1 °F - 45.0 °F 74% 29.77 in 10.0 mi NE 8.1 mph - N/A   Overcast
3:53 PM 52.0 °F - 46.0 °F 80% 29.78 in 10.0 mi NNE 4.6 mph - N/A   Overcast
4:53 PM 51.1 °F - 45.0 °F 80% 29.75 in 10.0 mi Calm Calm - N/A   Overcast
5:53 PM 50.0 °F - 46.0 °F 86% 29.75 in 10.0 mi SW 3.5 mph - 0.01 in   Overcast
6:17 PM 50.0 °F - 46.9 °F 89% 29.73 in 7.0 mi Calm Calm - 0.01 in Rain Light Rain
6:53 PM 48.9 °F - 46.9 °F 93% 29.73 in 8.0 mi Calm Calm - 0.02 in   Overcast
7:50 PM 48.2 °F - 46.4 °F 93% 29.71 in 10.0 mi Calm Calm - N/A   Overcast
7:53 PM 48.9 °F - 46.9 °F 93% 29.71 in 10.0 mi Calm Calm - N/A   Overcast
8:03 PM 48.9 °F - 46.0 °F 90% 29.71 in 10.0 mi Calm Calm - N/A   Overcast
8:38 PM 48.9 °F - 46.9 °F 93% 29.72 in 7.0 mi WNW 5.8 mph - 0.01 in Rain Light Rain
8:53 PM 48.9 °F - 46.9 °F 93% 29.72 in 5.0 mi WNW 5.8 mph - 0.02 in Rain Light Rain
9:45 PM 46.9 °F - 46.0 °F 97% 29.71 in 1.8 mi Calm Calm - 0.00 in   Partly Cloudy
9:53 PM 46.9 °F - 45.0 °F 93% 29.71 in 2.5 mi SE 6.9 mph - 0.00 in   Partly Cloudy
10:09 PM 46.0 °F 43.1 °F 45.0 °F 96% 29.70 in 6.0 mi SW 5.8 mph - N/A   Clear
10:53 PM 46.0 °F 44.8 °F 44.1 °F 93% 29.72 in 10.0 mi SSE 3.5 mph - N/A   Clear
11:53 PM 45.0 °F - 43.0 °F 93% 29.72 in 10.0 mi Calm Calm - N/A   Clear